Tiempo cada hora Cel

Hoy, 20 Abril, Martes

Tiempo Temperatura Precipitaciones Viento Presión Humedad
00:00 +5°C° 0 mm 2 mps 749 mmHg 91%
01:00 +5°C° 0 mm 2 mps 748 mmHg 92%
02:00 +5°C° 0 mm 2 mps 748 mmHg 93%
03:00 +5°C° 0 mm 2 mps 748 mmHg 93%
04:00 +5°C° 0 mm 2 mps 748 mmHg 93%
05:00 +5°C° 0 mm 2 mps 747 mmHg 93%
06:00 +4°C° 0 mm 3 mps 747 mmHg 87%
07:00 +5°C° 0 mm 3 mps 747 mmHg 82%
08:00 +7°C° 0 mm 3 mps 747 mmHg 76%
09:00 +7°C° 0.1 mm 4 mps 747 mmHg 74%
10:00 +7°C° 0.1 mm 4 mps 746 mmHg 72%
11:00 +7°C° 0.1 mm 4 mps 746 mmHg 69%
12:00 +7°C° 0.1 mm 4 mps 746 mmHg 69%
13:00 +8°C° 0.1 mm 3 mps 745 mmHg 69%
14:00 +9°C° 0.1 mm 3 mps 745 mmHg 68%
15:00 +8°C° 0.1 mm 3 mps 745 mmHg 71%
16:00 +8°C° 0.1 mm 3 mps 745 mmHg 73%
17:00 +7°C° 0.1 mm 4 mps 744 mmHg 75%
18:00 +7°C° 0 mm 3 mps 744 mmHg 80%
19:00 +5°C° 0 mm 3 mps 744 mmHg 85%
20:00 +5°C° 0 mm 2 mps 744 mmHg 90%
21:00 +5°C° 0 mm 2 mps 744 mmHg 89%
22:00 +5°C° 0 mm 2 mps 744 mmHg 88%
23:00 +5°C° 0 mm 2 mps 744 mmHg 86%

Mañana, 21 Abril, Miércoles

Tiempo Temperatura Precipitaciones Viento Presión Humedad
00:00 +5°C° 0 mm 2 mps 743 mmHg 87%
01:00 +5°C° 0 mm 2 mps 743 mmHg 87%
02:00 +5°C° 0 mm 2 mps 743 mmHg 88%
03:00 +4°C° 0 mm 2 mps 743 mmHg 89%
04:00 +4°C° 0 mm 2 mps 743 mmHg 89%
05:00 +4°C° 0 mm 2 mps 742 mmHg 90%
06:00 +5°C° 0 mm 2 mps 743 mmHg 86%
07:00 +5°C° 0 mm 2 mps 743 mmHg 82%
08:00 +6°C° 0 mm 2 mps 743 mmHg 79%
09:00 +7°C° 0 mm 2 mps 743 mmHg 72%
10:00 +8°C° 0 mm 2 mps 743 mmHg 65%
11:00 +9°C° 0 mm 2 mps 742 mmHg 58%
12:00 +9°C° 0 mm 2 mps 742 mmHg 57%
13:00 +10°C° 0 mm 2 mps 742 mmHg 56%
14:00 +10°C° 0 mm 3 mps 742 mmHg 55%
15:00 +10°C° 0 mm 2 mps 742 mmHg 56%
16:00 +12°C° 0 mm 2 mps 742 mmHg 57%
17:00 +12°C° 0 mm 2 mps 742 mmHg 57%
18:00 +10°C° 0 mm 2 mps 742 mmHg 64%
19:00 +9°C° 0 mm 2 mps 743 mmHg 71%
20:00 +8°C° 0 mm 2 mps 743 mmHg 77%
21:00 +8°C° 0.1 mm 2 mps 743 mmHg 79%
22:00 +7°C° 0.1 mm 2 mps 743 mmHg 81%
23:00 +7°C° 0.1 mm 2 mps 743 mmHg 83%

Pasado mañana, 22 Abril, Jueves

Tiempo Temperatura Precipitaciones Viento Presión Humedad
00:00 +7°C° 0 mm 2 mps 743 mmHg 85%
01:00 +6°C° 0 mm 2 mps 743 mmHg 88%
02:00 +6°C° 0 mm 2 mps 743 mmHg 91%
03:00 +5°C° 0 mm 2 mps 743 mmHg 91%
04:00 +5°C° 0 mm 2 mps 743 mmHg 92%
05:00 +5°C° 0 mm 2 mps 743 mmHg 93%
06:00 +7°C° 0 mm 2 mps 743 mmHg 88%
07:00 +8°C° 0 mm 2 mps 743 mmHg 83%
08:00 +9°C° 0 mm 2 mps 743 mmHg 78%
09:00 +11°C° 0.1 mm 3 mps 743 mmHg 68%
10:00 +12°C° 0.1 mm 4 mps 743 mmHg 59%
11:00 +14°C° 0.1 mm 4 mps 743 mmHg 50%
12:00 +14°C° 0.2 mm 5 mps 743 mmHg 50%
13:00 +14°C° 0.2 mm 5 mps 743 mmHg 49%
14:00 +14°C° 0.2 mm 5 mps 743 mmHg 49%
15:00 +14°C° 0.1 mm 5 mps 743 mmHg 53%
16:00 +13°C° 0.1 mm 4 mps 743 mmHg 57%
17:00 +13°C° 0.1 mm 4 mps 743 mmHg 61%
18:00 +11°C° 0 mm 3 mps 743 mmHg 66%
19:00 +10°C° 0 mm 2 mps 743 mmHg 72%
20:00 +9°C° 0 mm 1 mps 744 mmHg 77%
21:00 +7°C° 1.4 mm 2 mps 744 mmHg 81%
22:00 +5°C° 1.4 mm 3 mps 744 mmHg 85%
23:00 +5°C° 1.4 mm 3 mps 744 mmHg 90%

23 Abril, Viernes

Tiempo Temperatura Precipitaciones Viento Presión Humedad
00:00 +4°C° 0.4 mm 3 mps 744 mmHg 88%
01:00 +5°C° 0.4 mm 2 mps 744 mmHg 87%
02:00 +5°C° 0.4 mm 2 mps 744 mmHg 86%
03:00 +4°C° 0 mm 2 mps 744 mmHg 86%
04:00 +4°C° 0 mm 2 mps 744 mmHg 86%
05:00 +3°C° 0 mm 3 mps 744 mmHg 86%
06:00 +3°C° 0 mm 3 mps 745 mmHg 82%
07:00 +3°C° 0 mm 3 mps 745 mmHg 79%
08:00 +4°C° 0 mm 3 mps 745 mmHg 75%
09:00 +5°C° 0 mm 4 mps 745 mmHg 67%
10:00 +6°C° 0 mm 4 mps 745 mmHg 58%
11:00 +7°C° 0 mm 5 mps 745 mmHg 50%
12:00 +7°C° 0 mm 5 mps 745 mmHg 48%
13:00 +7°C° 0 mm 5 mps 745 mmHg 46%
14:00 +7°C° 0 mm 5 mps 745 mmHg 45%
15:00 +7°C° 0.2 mm 5 mps 745 mmHg 48%
16:00 +7°C° 0.2 mm 4 mps 745 mmHg 52%
17:00 +6°C° 0.2 mm 4 mps 745 mmHg 56%
18:00 +5°C° 0 mm 3 mps 746 mmHg 61%
19:00 +4°C° 0 mm 3 mps 746 mmHg 66%
20:00 +2°C° 0 mm 3 mps 746 mmHg 71%
21:00 +2°C° 0 mm 3 mps 746 mmHg 78%
22:00 +2°C° 0 mm 2 mps 746 mmHg 85%
23:00 +1°C° 0 mm 2 mps 746 mmHg 92%

24 Abril, Sábado

Tiempo Temperatura Precipitaciones Viento Presión Humedad
00:00 +1°C° 0 mm 2 mps 746 mmHg 92%
01:00 -1°C° 0 mm 2 mps 746 mmHg 93%
02:00 -1°C° 0 mm 2 mps 746 mmHg 94%
03:00 -1°C° 0 mm 2 mps 746 mmHg 93%
04:00 -1°C° 0 mm 2 mps 746 mmHg 93%
05:00 -2°C° 0 mm 3 mps 746 mmHg 92%
06:00 -1°C° 0 mm 3 mps 746 mmHg 84%
07:00 -1°C° 0 mm 4 mps 746 mmHg 76%
08:00 +1°C° 0 mm 4 mps 746 mmHg 68%
09:00 +1°C° 0 mm 4 mps 746 mmHg 67%
10:00 +2°C° 0 mm 5 mps 746 mmHg 66%
11:00 +3°C° 0 mm 5 mps 746 mmHg 65%
12:00 +3°C° 0.3 mm 5 mps 746 mmHg 61%
13:00 +5°C° 0.3 mm 5 mps 745 mmHg 58%
14:00 +6°C° 0.3 mm 5 mps 745 mmHg 54%
15:00 +6°C° 0.3 mm 5 mps 745 mmHg 56%
16:00 +6°C° 0.3 mm 5 mps 745 mmHg 58%
17:00 +5°C° 0.3 mm 4 mps 745 mmHg 60%
18:00 +4°C° 0.1 mm 4 mps 745 mmHg 67%
19:00 +3°C° 0.1 mm 3 mps 745 mmHg 74%
20:00 +1°C° 0.1 mm 3 mps 745 mmHg 81%
21:00 +1°C° 0 mm 3 mps 746 mmHg 84%
22:00 0°C° 0 mm 3 mps 746 mmHg 86%
23:00 -1°C° 0 mm 2 mps 746 mmHg 88%

25 Abril, Domingo

Tiempo Temperatura Precipitaciones Viento Presión Humedad
00:00 -1°C° 0 mm 2 mps 746 mmHg 89%
01:00 -2°C° 0 mm 2 mps 746 mmHg 90%
02:00 -2°C° 0 mm 2 mps 746 mmHg 90%
03:00 -2°C° 0 mm 2 mps 746 mmHg 91%
04:00 -2°C° 0 mm 2 mps 745 mmHg 92%
05:00 -3°C° 0 mm 2 mps 745 mmHg 92%
06:00 -1°C° 0 mm 2 mps 746 mmHg 86%
07:00 0°C° 0 mm 3 mps 746 mmHg 80%
08:00 +1°C° 0 mm 3 mps 746 mmHg 74%
09:00 +2°C° 0.1 mm 3 mps 746 mmHg 69%
10:00 +3°C° 0.1 mm 3 mps 746 mmHg 64%
11:00 +4°C° 0.1 mm 3 mps 746 mmHg 59%
12:00 +4°C° 0.1 mm 3 mps 746 mmHg 56%
13:00 +5°C° 0.1 mm 3 mps 746 mmHg 53%
14:00 +5°C° 0.1 mm 3 mps 746 mmHg 51%
15:00 +5°C° 0.1 mm 3 mps 745 mmHg 51%
16:00 +5°C° 0.1 mm 3 mps 745 mmHg 52%
17:00 +5°C° 0.1 mm 3 mps 745 mmHg 52%
18:00 +4°C° 0.1 mm 3 mps 745 mmHg 60%
19:00 +4°C° 0.1 mm 2 mps 745 mmHg 69%
20:00 +2°C° 0.1 mm 2 mps 745 mmHg 77%
21:00 +2°C° 0 mm 2 mps 745 mmHg 79%
22:00 +2°C° 0 mm 2 mps 745 mmHg 81%
23:00 +1°C° 0 mm 2 mps 745 mmHg 83%
Mostrar más

Necesitamos Su Consentimiento

Meteoprog y nuestros Proveedores de Servicios pueden almacenar y acceder a sus datos personales como cookies, identificadores de dispositivo u otras tecnologías similares de su dispositivo y procesar dichos datos para personalizar contenido y anuncios, además de ofrecer funciones de redes sociales y analizar el tráfico.

  • Almacenar y/o acceder a información en su dispositivo

    Se puede almacenar o acceder a cookies, identificadores de dispositivo u otra información de su dispositivo para los fines anteriormente indicados.

  • Anuncios y contenido personalizados, medición de anuncios y contenido, percepciones del público, y desarrollo de productos

    Los anuncios y el contenido pueden personalizarse en base a su perfil. Se pueden añadir más datos para personalizar mejor los anuncios y contenidos. Se puede medir el rendimiento de los anuncios y contenidos. Se puede obtener la percepción sobre el público que ha visto los anuncios y contenidos. Dichos datos pueden usarse para desarrollar o mejorar la experiencia del usuario, sistemas y software.

Al hacer clic en ‘Estoy De Acuerdo’ usted permitirá el uso de las cookies, identificadores de dispositivo, balizas web u otras tecnologías similares indicadas. Su configuración puede cambiarse desde el navegador de su dispositivo.

Para ciertos fines, los intereses legítimos pueden ser considerados por encima del consentimiento. Puede leer más sobre ello en nuestra Política de Privacidad y Cookies.